Weather History for Fukuoka Airport, Japan

Change the Weather History Date:

Thursday, September 19, 2013

  Actual Average Record
Temperature  
Mean Temperature 78 °F -  
Max Temperature 89 °F 75 °F 96 °F (1999)
Min Temperature 66 °F 61 °F 60 °F (2000)
Cooling Degree Days 12    
Growing Degree Days 28 (Base 50)    
Moisture  
Dew Point 64 °F    
Average Humidity 64    
Maximum Humidity 88    
Minimum Humidity 43    
Precipitation  
Precipitation 0.00 in - - ()
Sea Level Pressure  
Sea Level Pressure 30.01 in    
Wind  
Wind Speed 4 mph ()    
Max Wind Speed 10 mph    
Max Gust Speed 21 mph    
Visibility 6.2 miles    
Events      
Averages and records for this station are not official NWS values.
T = Trace of Precipitation, MM = Missing Value Source: Averaged Metar Reports

Daily Weather History Graph

Daily Weather History Graph

Search for Another Location

Airport:

Trip Planner

Search our weather history database for the weather conditions in past years. The results will help you decide how hot, cold, wet, or windy it might be!

Date:

Astronomy

Sep. 19, 2013 Rise Set
Actual Time 6:04 AM JST 6:19 PM JST
Civil Twilight 5:39 AM JST 6:44 PM JST
Nautical Twilight 5:10 AM JST 7:13 PM JST
Astronomical Twilight 4:40 AM JST 7:42 PM JST
Moon 5:58 PM JST (9/19) 5:32 AM JST (9/19)
Length of Visible Light 13h 05m
Length of Day
12h 15m
Full, 100% of the Moon is Illuminated
Sep 19
Full
Sep 19
Full
Sep 27
Last Quarter
Oct 5
New
Oct 12
First Quarter

Hourly Weather History & Observations

Time (JST) Temp. Heat Index Dew Point Humidity Pressure Visibility Wind Dir Wind Speed Gust Speed Precip Events Conditions
12:00 AM 73.4 °F - 64.4 °F 73% 30.04 in - ESE 5.8 mph - N/A   Clear
12:30 AM 73.4 °F - 64.4 °F 73% 30.04 in - Variable 2.3 mph - N/A   Clear
1:00 AM 71.6 °F - 64.4 °F 78% 30.04 in - East 2.3 mph - N/A   Clear
1:30 AM 71.6 °F - 64.4 °F 78% 30.04 in - ESE 2.3 mph - N/A   Clear
2:00 AM 71.6 °F - 64.4 °F 78% 30.04 in - Variable 1.2 mph - N/A   Clear
2:30 AM 69.8 °F - 64.4 °F 83% 30.04 in - ENE 2.3 mph - N/A   Clear
3:00 AM 69.8 °F - 62.6 °F 78% 30.04 in - East 2.3 mph - N/A   Clear
3:30 AM 68.0 °F - 62.6 °F 83% 30.04 in 6.2 mi Variable 1.2 mph - N/A   Partly Cloudy
4:00 AM 68.0 °F - 64.4 °F 88% 30.04 in 6.2 mi Variable 2.3 mph - N/A   Partly Cloudy
4:30 AM 68.0 °F - 62.6 °F 83% 30.04 in 6.2 mi Variable 1.2 mph - N/A   Partly Cloudy
5:00 AM 69.8 °F - 62.6 °F 78% 30.04 in 6.2 mi East 3.5 mph - N/A   Partly Cloudy
5:30 AM 66.2 °F - 62.6 °F 88% 30.04 in 6.2 mi South 5.8 mph - N/A   Partly Cloudy
6:00 AM 66.2 °F - 62.6 °F 88% 30.04 in 6.2 mi SSE 4.6 mph - N/A   Partly Cloudy
6:30 AM 68.0 °F - 62.6 °F 83% 30.04 in 6.2 mi Variable 1.2 mph - N/A   Partly Cloudy
7:00 AM 69.8 °F - 64.4 °F 83% 30.04 in 6.2 mi SE 2.3 mph - N/A   Partly Cloudy
7:30 AM 71.6 °F - 64.4 °F 78% 30.04 in 6.2 mi South 4.6 mph - N/A   Partly Cloudy
8:00 AM 75.2 °F - 64.4 °F 69% 30.04 in 6.2 mi South 3.5 mph - N/A   Partly Cloudy
8:30 AM 75.2 °F - 62.6 °F 65% 30.06 in 6.2 mi SSW 5.8 mph - N/A   Partly Cloudy
9:00 AM 78.8 °F - 60.8 °F 54% 30.04 in 6.2 mi Variable 3.5 mph - N/A   Partly Cloudy
9:30 AM 80.6 °F 81.1 °F 59.0 °F 48% 30.04 in 6.2 mi East 8.1 mph - N/A   Partly Cloudy
10:00 AM 82.4 °F 82.9 °F 60.8 °F 48% 30.04 in 6.2 mi ENE 8.1 mph - N/A   Partly Cloudy
10:30 AM 82.4 °F 82.5 °F 59.0 °F 45% 30.04 in 6.2 mi East 9.2 mph - N/A   Partly Cloudy
11:00 AM 82.4 °F 82.9 °F 60.8 °F 48% 30.04 in 6.2 mi East 8.1 mph - N/A   Partly Cloudy
11:30 AM 84.2 °F 85.0 °F 62.6 °F 48% 30.01 in 6.2 mi NE 9.2 mph 20.7 mph N/A   Partly Cloudy
12:00 PM 84.2 °F 85.0 °F 62.6 °F 48% 30.01 in 6.2 mi NE 8.1 mph - N/A   Partly Cloudy
12:30 PM 86.0 °F 86.6 °F 62.6 °F 45% 30.01 in 6.2 mi ENE 8.1 mph - N/A   Partly Cloudy
1:00 PM 86.0 °F 86.6 °F 62.6 °F 45% 29.98 in 6.2 mi NNE 6.9 mph - N/A   Partly Cloudy
1:30 PM 86.0 °F 86.6 °F 62.6 °F 45% 29.98 in 6.2 mi NE 8.1 mph - N/A   Partly Cloudy
2:00 PM 86.0 °F 86.6 °F 62.6 °F 45% 29.98 in 6.2 mi NE 6.9 mph - N/A   Partly Cloudy
2:12 PM 89.6 °F 91.1 °F 64.4 °F 43% 29.95 in 6.2 mi ENE 5.8 mph - N/A   Partly Cloudy
2:30 PM 87.8 °F 89.4 °F 64.4 °F 46% 29.95 in 6.2 mi ENE 6.9 mph - N/A   Partly Cloudy
3:00 PM 87.8 °F 89.4 °F 64.4 °F 46% 29.95 in 6.2 mi Variable 6.9 mph - N/A   Partly Cloudy
3:30 PM 87.8 °F 90.4 °F 66.2 °F 49% 29.95 in 6.2 mi NE 9.2 mph - N/A   Partly Cloudy
4:00 PM 86.0 °F 88.2 °F 66.2 °F 51% 29.95 in 6.2 mi NE 10.4 mph - N/A   Partly Cloudy
4:30 PM 86.0 °F 88.2 °F 66.2 °F 51% 29.95 in 6.2 mi NE 10.4 mph - N/A   Partly Cloudy
5:00 PM 86.0 °F 88.2 °F 66.2 °F 51% 29.95 in 6.2 mi NE 9.2 mph - N/A   Partly Cloudy
5:30 PM 84.2 °F 85.6 °F 64.4 °F 51% 29.95 in - NNE 10.4 mph - N/A   Clear
6:00 PM 84.2 °F 86.6 °F 66.2 °F 55% 29.95 in 6.2 mi NE 9.2 mph - N/A   Partly Cloudy
6:30 PM 82.4 °F 85.4 °F 68.0 °F 62% 29.95 in - ENE 10.4 mph - N/A   Clear
7:00 PM 78.8 °F - 68.0 °F 69% 29.98 in - SSE 9.2 mph - N/A   Clear
7:30 PM 78.8 °F - 68.0 °F 69% 29.98 in - South 4.6 mph - N/A   Clear
8:00 PM 78.8 °F - 68.0 °F 69% 30.01 in - SSW 3.5 mph - N/A   Clear
8:30 PM 78.8 °F - 68.0 °F 69% 30.01 in - Variable 1.2 mph - N/A   Clear
9:00 PM 77.0 °F - 66.2 °F 69% 30.01 in - ESE 4.6 mph - N/A   Clear
9:30 PM 77.0 °F - 66.2 °F 69% 30.01 in - ESE 4.6 mph - N/A   Clear
10:00 PM 75.2 °F - 66.2 °F 73% 30.01 in - ESE 3.5 mph - N/A   Clear
10:30 PM 73.4 °F - 64.4 °F 73% 30.01 in - SE 3.5 mph - N/A   Clear
11:00 PM 75.2 °F - 64.4 °F 69% 30.01 in - SSE 4.6 mph - N/A   Clear
11:30 PM 71.6 °F - 62.6 °F 73% 30.01 in - SSE 4.6 mph - N/A   Clear